EW0259 Weather Reports


time (UTC)temp
C
wind
direction
speed
KPH
gust
KPH
rain 1hr
cm
rain 24hr
cm
rain mn
cm
humidity
%
barometer
mb
20260503211233 26 315 4.8 14.5 0.00 0.00 0.00 40 1013.4
20260503210721 26 300 3.2 6.4 0.00 0.00 0.00 40 1013.4
20260503210229 26 42 1.6 14.5 0.00 0.00 0.00 41 1013.4
20260503205736 26 32 4.8 14.5 0.00 0.00 0.00 42 1013.5
20260503205224 26 297 6.4 9.7 0.00 0.00 0.00 41 1013.5
20260503204812 26 20 3.2 9.7 0.00 0.00 0.00 41 1013.6
20260503204740 26 20 3.2 9.7 0.00 0.00 0.00 41 1013.6
20260503204307 26 9 3.2 8.0 0.00 0.00 0.00 42 1013.6
20260503203804 26 52 1.6 11.3 0.00 0.00 0.00 42 1013.6
20260503203732 26 52 1.6 11.3 0.00 0.00 0.00 42 1013.6
20260503203240 26 50 3.2 12.9 0.00 0.00 0.00 42 1013.6
20260503202807 25 43 3.2 12.9 0.00 0.00 0.00 42 1013.8
20260503202224 25 292 3.2 8.0 0.00 0.00 0.00 43 1013.8
20260503201732 25 355 4.8 16.1 0.00 0.00 0.00 43 1013.8
20260503201240 25 328 6.4 16.1 0.00 0.00 0.00 45 1013.8
20260503200732 25 312 3.2 16.1 0.00 0.00 0.00 45 1013.9
20260503200239 24 331 4.8 16.1 0.00 0.00 0.00 45 1014.0
20260503195726 24 38 6.4 16.1 0.00 0.00 0.00 46 1014.1
20260503195233 24 294 6.4 16.1 0.00 0.00 0.00 46 1014.2
20260503194721 24 321 4.8 14.5 0.00 0.00 0.00 46 1014.3
20260503194229 25 317 4.8 14.5 0.00 0.00 0.00 45 1014.4
20260503193737 25 69 4.8 11.3 0.00 0.00 0.00 46 1014.4
20260503193225 25 319 3.2 11.3 0.00 0.00 0.00 47 1014.5
20260503192732 24 313 3.2 8.0 0.00 0.00 0.00 48 1014.5
20260503192300 23 75 1.6 16.1 0.00 0.00 0.00 50 1014.5
20260503192228 23 75 1.6 16.1 0.00 0.00 0.00 50 1014.5
20260503191736 23 267 4.8 16.1 0.00 0.00 0.00 50 1014.7
20260503191228 23 346 3.2 14.5 0.00 0.00 0.00 49 1014.6
20260503190736 23 243 4.8 12.9 0.00 0.00 0.00 49 1014.7
20260503190224 23 346 4.8 12.9 0.00 0.00 0.00 49 1014.7
20260503185731 23 265 3.2 11.3 0.00 0.00 0.00 50 1014.7
20260503185239 23 325 1.6 11.3 0.00 0.00 0.00 52 1014.7
20260503184807 22 298 1.6 9.7 0.00 0.00 0.00 52 1014.8
20260503184224 22 320 6.4 9.7 0.00 0.00 0.00 51 1014.9
20260503183811 22 277 6.4 11.3 0.00 0.00 0.00 53 1015.0
20260503183228 23 318 3.2 8.0 0.00 0.00 0.00 52 1014.9
20260503182735 23 331 1.6 6.4 0.00 0.00 0.00 54 1014.9
20260503182223 22 355 1.6 6.4 0.00 0.00 0.00 53 1015.0
20260503181736 22 33 1.6 6.4 0.00 0.00 0.00 53 1015.1
20260503181223 22 24 1.6 12.9 0.00 0.00 0.00 55 1015.0
20260503180810 22 327 3.2 12.9 0.00 0.00 0.00 53 1015.0
20260503180227 21 338 3.2 6.4 0.00 0.00 0.00 55 1015.0
20260503175734 21 78 3.2 8.0 0.00 0.00 0.00 54 1014.9
20260503175222 21 341 3.2 9.7 0.00 0.00 0.00 54 1015.1
20260503174730 21 11 3.2 9.7 0.00 0.00 0.00 54 1015.0
20260503174238 21 333 3.2 9.7 0.00 0.00 0.00 53 1015.3
20260503173726 21 355 3.2 8.0 0.00 0.00 0.00 54 1015.1
20260503173234 21 304 3.2 8.0 0.00 0.00 0.00 53 1015.2
20260503172725 21 243 3.2 8.0 0.00 0.00 0.00 54 1015.3
20260503172233 21 317 3.2 6.4 0.00 0.00 0.00 55 1015.3
20260503171721 21 288 1.6 8.0 0.00 0.00 0.00 56 1015.2
20260503171309 20 360 1.6 6.4 0.00 0.00 0.00 55 1015.4
20260503170724 20 313 3.2 6.4 0.00 0.00 0.00 56 1015.3
20260503170232 20 51 1.6 6.4 0.00 0.00 0.00 58 1015.2
20260503150722 17 88 0.0 0.0 0.00 0.00 0.00 71 1015.3
20260503150234 16 88 0.0 0.0 0.00 0.00 0.00 75 1015.2
20260503140300 11 88 0.0 0.0 0.00 0.00 0.00 86 1015.0
20260503131240 9 88 0.0 3.2 0.00 0.00 0.00 90 1015.1
20260503130732 9 88 0.0 3.2 0.00 0.00 0.00 89 1015.1
20260503130240 9 88 0.0 1.6 0.00 0.00 0.00 90 1015.1
20260503110739 10 165 0.0 0.0 0.00 0.00 0.00 86 1015.2
20260503110227 10 164 0.0 0.0 0.00 0.00 0.00 86 1015.1
20260503090233 11 165 0.0 0.0 0.00 0.00 0.00 81 1015.6
20260503081303 12 165 0.0 0.0 0.00 0.00 0.00 77 1015.8
20260503080739 12 165 0.0 0.0 0.00 0.00 0.00 76 1015.8
20260503080227 12 164 0.0 0.0 0.00 0.00 0.00 76 1015.8
20260503072737 13 165 0.0 0.0 0.00 0.00 0.00 72 1015.6
20260503072229 13 165 0.0 0.0 0.00 0.00 0.00 71 1015.6
20260503071737 14 165 0.0 0.0 0.00 0.00 0.00 71 1015.5
20260503071225 14 165 0.0 0.0 0.00 0.00 0.00 70 1015.6
20260503070753 15 165 0.0 0.0 0.00 0.00 0.00 70 1015.5
20260503070229 15 165 0.0 0.0 0.00 0.00 0.00 70 1015.5
20260503060231 16 276 0.0 0.0 0.00 0.00 0.00 59 1015.4
20260503054731 16 260 0.0 1.6 0.00 0.00 0.00 58 1015.4
20260503054239 16 260 0.0 3.2 0.00 0.00 0.00 59 1015.4
20260503053727 16 260 0.0 3.2 0.00 0.00 0.00 59 1015.4
20260503053235 17 260 0.0 1.6 0.00 0.00 0.00 58 1015.3
20260503052722 17 261 0.0 3.2 0.00 0.00 0.00 57 1015.3
20260503052230 17 260 0.0 3.2 0.00 0.00 0.00 57 1015.2
20260503051722 18 260 1.6 3.2 0.00 0.00 0.00 57 1015.1
20260503051230 18 295 0.0 3.2 0.00 0.00 0.00 54 1015.2
20260503050738 18 295 0.0 3.2 0.00 0.00 0.00 51 1015.1
20260503050226 18 310 0.0 3.2 0.00 0.00 0.00 50 1015.2
20260503045753 18 313 0.0 4.8 0.00 0.00 0.00 50 1015.2
20260503045721 18 313 0.0 4.8 0.00 0.00 0.00 50 1015.2
20260503045229 18 313 1.6 4.8 0.00 0.00 0.00 51 1015.1
20260503044757 18 283 0.0 3.2 0.00 0.00 0.00 51 1015.2
20260503044234 18 280 1.6 4.8 0.00 0.00 0.00 52 1015.1
20260503043802 18 309 1.6 4.8 0.00 0.00 0.00 54 1015.1
20260503043259 18 327 0.0 1.6 0.00 0.00 0.00 54 1015.1
20260503042734 18 327 0.0 3.2 0.00 0.00 0.00 55 1015.1
20260503042304 18 349 0.0 3.2 0.00 0.00 0.00 56 1015.1
20260503041758 18 349 0.0 3.2 0.00 0.00 0.00 57 1015.0
20260503041235 18 325 0.0 3.2 0.00 0.00 0.00 57 1015.0
20260503040723 18 333 1.6 3.2 0.00 0.00 0.00 58 1014.9
20260503040230 18 294 0.0 1.6 0.00 0.00 0.00 58 1014.8
20260503035721 19 294 0.0 0.0 0.00 0.00 0.00 58 1014.8
20260503035230 19 294 0.0 0.0 0.00 0.00 0.00 58 1014.7
20260503034737 19 294 0.0 0.0 0.00 0.00 0.00 58 1014.7
20260503034225 20 294 0.0 0.0 0.00 0.00 0.00 57 1014.5
20260503033733 20 294 0.0 0.0 0.00 0.00 0.00 57 1014.4
20260503033241 20 294 0.0 3.2 0.00 0.00 0.00 57 1014.3
20260503032728 20 294 0.0 3.2 0.00 0.00 0.00 56 1014.3
20260503032236 20 301 0.0 6.4 0.00 0.00 0.00 56 1014.3
20260503031804 20 342 1.6 8.0 0.00 0.00 0.00 55 1014.2
20260503031240 20 319 1.6 8.0 0.00 0.00 0.00 55 1014.2
20260503030728 20 323 0.0 6.4 0.00 0.00 0.00 54 1014.1
20260503030240 21 325 1.6 6.4 0.00 0.00 0.00 54 1014.1
20260503025727 21 296 1.6 8.0 0.00 0.00 0.00 54 1014.1
20260503025235 21 334 3.2 8.0 0.00 0.00 0.00 54 1014.2
20260503024723 21 323 1.6 11.3 0.00 0.00 0.00 54 1014.2
20260503024311 21 333 4.8 11.3 0.00 0.00 0.00 53 1014.0
20260503023727 21 85 3.2 8.0 0.00 0.00 0.00 54 1013.9
20260503023235 21 324 3.2 14.5 0.00 0.00 0.00 54 1014.0
20260503022722 21 325 3.2 14.5 0.00 0.00 0.00 54 1014.2
20260503022310 22 282 3.2 8.0 0.00 0.00 0.00 53 1014.1
20260503022238 22 282 3.2 8.0 0.00 0.00 0.00 53 1014.1
20260503021726 22 309 3.2 9.7 0.00 0.00 0.00 52 1013.9
20260503021234 22 350 3.2 8.0 0.00 0.00 0.00 52 1013.9
20260503020726 22 340 1.6 12.9 0.00 0.00 0.00 52 1014.0
20260503020234 22 308 3.2 11.3 0.00 0.00 0.00 51 1014.0
20260503015721 23 324 1.6 6.4 0.00 0.00 0.00 50 1014.0
20260503015308 23 360 1.6 4.8 0.00 0.00 0.00 49 1014.0
20260503014805 23 42 0.0 6.4 0.00 0.00 0.00 49 1014.1
20260503014733 23 42 0.0 6.4 0.00 0.00 0.00 49 1014.1
20260503014221 23 324 3.2 8.0 0.00 0.00 0.00 49 1014.1
20260503013729 23 338 1.6 11.3 0.00 0.00 0.00 49 1014.1
20260503013236 23 332 4.8 12.9 0.00 0.00 0.00 49 1014.1
20260503012723 23 355 3.2 14.5 0.00 0.00 0.00 48 1014.0
20260503012231 23 309 6.4 12.9 0.00 0.00 0.00 48 1014.2
20260503011739 23 309 4.8 11.3 0.00 0.00 0.00 48 1014.2
20260503011306 23 307 1.6 12.9 0.00 0.00 0.00 48 1014.0
20260503010723 23 14 4.8 14.5 0.00 0.00 0.00 48 1014.0
20260503010310 23 321 3.2 14.5 0.00 0.00 0.00 48 1014.0
20260503005806 23 309 4.8 12.9 0.00 0.00 0.00 47 1014.1
20260503005227 23 11 1.6 14.5 0.00 0.00 0.00 48 1014.1
20260503004735 23 312 6.4 14.5 0.00 0.00 0.00 47 1014.1
20260503004223 24 309 3.2 8.0 0.00 0.00 0.00 47 1014.2
20260503003731 23 327 3.2 16.1 0.00 0.00 0.00 48 1014.2
20260503003259 23 10 6.4 16.1 0.00 0.00 0.00 48 1014.3
20260503003227 23 10 6.4 16.1 0.00 0.00 0.00 48 1014.3
20260503002734 23 360 3.2 14.5 0.00 0.00 0.00 48 1014.3
20260503002222 23 302 3.2 16.1 0.00 0.00 0.00 48 1014.4
20260503001730 23 252 6.4 17.7 0.00 0.00 0.00 48 1014.2
20260503001257 23 303 4.8 17.7 0.00 0.00 0.00 47 1014.2
20260503000734 23 323 8.0 17.7 0.00 0.00 0.00 48 1014.3
20260503000222 24 267 6.4 14.5 0.00 0.00 0.00 46 1014.3
20260502235729 23 254 3.2 9.7 0.00 0.00 0.00 48 1014.3
20260502235221 23 35 3.2 11.3 0.00 0.00 0.00 48 1014.4
20260502234729 23 300 3.2 16.1 0.00 0.00 0.00 48 1014.4
20260502234237 23 9 4.8 16.1 0.00 0.00 0.00 48 1014.6
20260502233725 23 334 3.2 16.1 0.00 0.00 0.00 48 1014.8
20260502233312 23 263 3.2 19.3 0.00 0.00 0.00 49 1014.8
20260502232808 23 288 8.0 19.3 0.00 0.00 0.00 47 1014.8
20260502232224 23 315 4.8 12.9 0.00 0.00 0.00 48 1015.0
20260502231812 23 56 4.8 12.9 0.00 0.00 0.00 49 1015.1
20260502231228 23 266 3.2 12.9 0.00 0.00 0.00 50 1015.2
20260502230736 23 309 4.8 14.5 0.00 0.00 0.00 50 1015.2
20260502230304 23 304 4.8 14.5 0.00 0.00 0.00 50 1015.1
20260502230232 23 304 4.8 14.5 0.00 0.00 0.00 50 1015.1
20260502225739 23 274 3.2 12.9 0.00 0.00 0.00 51 1015.3
20260502225226 23 278 3.2 16.1 0.00 0.00 0.00 52 1015.4
20260502224734 23 331 8.0 16.1 0.00 0.00 0.00 51 1015.4
20260502224226 23 97 4.8 16.1 0.00 0.00 0.00 53 1015.5
20260502223734 23 328 4.8 17.7 0.00 0.00 0.00 54 1015.4
20260502223241 23 321 4.8 8.0 0.00 0.00 0.00 55 1015.5
20260502222728 22 297 3.2 14.5 0.00 0.00 0.00 56 1015.6
20260502222234 22 321 4.8 14.5 0.00 0.00 0.00 56 1015.8
20260502221721 22 324 4.8 19.3 0.00 0.00 0.00 56 1015.9
20260502221229 22 10 9.7 19.3 0.00 0.00 0.00 56 1015.8
20260502220737 22 360 4.8 19.3 0.00 0.00 0.00 55 1015.8
20260502220225 22 313 6.4 17.7 0.00 0.00 0.00 55 1015.9
20260502215736 22 317 4.8 14.5 0.00 0.00 0.00 56 1016.1
20260502215224 22 298 6.4 16.1 0.00 0.00 0.00 56 1016.1
20260502214731 22 311 6.4 16.1 0.00 0.00 0.00 55 1016.0
20260502214239 22 297 4.8 16.1 0.00 0.00 0.00 55 1015.9
20260502213726 22 286 6.4 16.1 0.00 0.00 0.00 55 1016.0
20260502213234 22 348 6.4 16.1 0.00 0.00 0.00 55 1016.2
20260502212801 22 15 6.4 16.1 0.00 0.00 0.00 54 1016.3
20260502212237 22 321 6.4 11.3 0.00 0.00 0.00 54 1016.3
20260502211725 22 305 4.8 8.0 0.00 0.00 0.00 55 1016.4